Content
SEND FEEDBACK

Daily
Averages
Monthly
Summary
United States of America

EDWARDS, NEW YORK


Home > North America > United States > New York
Elevation: 850 feet     Latitude: 44 16N     Longitude: 075 12W

WEATHER
 
SELECT A DAY
Number of Records: 275,479;   Date Range: 1/1/95 - 11/27/14
 
SHARE

PRINT THIS DATA

[ ← Previous Day ]
WEATHER ALMANAC - JANUARY 23, 2013
[ Next Day → ]
[ °C ]   °F
Weather ElementAverageHighLow
Temperature-5.9 °F0.7 °F (3:55 pm)-15.5 °F (7:55 am)
Dewpoint-15.4 °F-11.4 °F (11:55 pm)-20.2 °F (7:55 am)
Humidity64.3 %79 % (7:55 am)44 % (1:55 pm)
Barometer30.22 in30.28 in (10:55 am)30.19 in (1:55 am)
Wind Speed3.4 mph9.2 mph (11:55 pm)
Weather ElementAverage
Visibility10 mi
Wind DirectionENE (75.7 °)

Weather ElementTotal
Precipitation---
Heating Degree Days72.4 (Base 65)
Averaged from 23 records on January 23, 2013
WEATHER CONDITIONS BREAKOUT
WIND DIRECTION BREAKOUT
WEATHER BY HOUR - JANUARY 23, 2013
[ °C ]   °F
Local TimeTemperatureDewpointHumidityBarometerVisibilityWind DirectionWind SpeedGust SpeedPrecipitationEventsConditions
1:55 AM-6.2 °F-12.3 °F75 %30.19 in10.0 miNorth (360°)4.6 mphClear
2:55 AM-8.5 °F-15.0 °F73 %30.20 in10.0 miNorth (10°)3.5 mphClear
3:55 AM-9.6 °F-17.3 °F69 %30.20 in10.0 miNorth (10°)5.8 mphClear
4:55 AM-11.0 °F-17.7 °F72 %30.22 in10.0 miNorth (10°)4.6 mphClear
5:55 AM-11.9 °F-17.9 °F75 %30.22 in10.0 miNorth (10°)4.6 mphClear
6:55 AM-13.2 °F-18.4 °F77 %30.24 in10.0 miCalmClear
7:55 AM-15.5 °F-20.2 °F79 %30.25 in10.0 miCalmClear
8:55 AM-11.0 °F-17.5 °F73 %30.26 in10.0 miNNE (20°)4.6 mphClear
9:55 AM-8.5 °F-16.6 °F68 %30.27 in10.0 miENE (60°)4.6 mphClear
10:55 AM-6.5 °F-17.0 °F61 %30.28 in10.0 miVariable4.6 mphClear
11:55 AM-4.2 °F-17.7 °F52 %30.26 in10.0 miSSW (200°)4.6 mphClear
12:55 PM-2.9 °F-16.4 °F53 %30.23 in10.0 miCalmClear
1:55 PM0.0 °F-17.3 °F44 %30.22 in10.0 miCalmClear
2:55 PM0.3 °F-16.6 °F45 %30.22 in10.0 miWSW (250°)5.8 mphClear
3:55 PM0.7 °F-14.8 °F48 %30.22 in10.0 miWest (270°)3.5 mphClear
4:55 PM-0.4 °F-13.9 °F53 %30.22 in10.0 miCalmClear
5:55 PM-0.8 °F-14.1 °F53 %30.22 in10.0 miCalmClear
6:55 PM-4.0 °F-14.1 °F62 %30.22 in10.0 miCalmClear
7:55 PM-3.5 °F-12.3 °F66 %30.22 in10.0 miCalmClear
8:55 PM-4.2 °F-12.8 °F66 %30.21 in10.0 miSE (140°)4.6 mphClear
9:55 PM-4.0 °F-11.6 °F70 %30.20 in10.0 miESE (120°)6.9 mphClear
10:55 PM-4.7 °F-12.1 °F71 %30.20 in10.0 miSE (140°)6.9 mphClear
11:55 PM-5.3 °F-11.4 °F75 %30.19 in10.0 miSE (140°)9.2 mphClear
Hourly data recorded from KGTB, located miles away from Edwards, New York







STORIES FROM OUR PARTNERS